Weather History for Mansfield, OH

Change the Weather History Date:

Monday, May 6, 2013

  Actual Average Record
Temperature  
Mean Temperature 63 °F 56 °F  
Max Temperature 73 °F 67 °F 86 °F (1959)
Min Temperature 52 °F 45 °F 24 °F (1957)
Degree Days  
Heating Degree Days 2 10  
Month to date heating degree days 8 63  
Since 1 July heating degree days 5836 6048  
Cooling Degree Days 0 1  
Month to date cooling degree days 4 1  
Year to date cooling degree days 10 9  
Growing Degree Days 13 (Base 50)    
Moisture  
Dew Point 44 °F    
Average Humidity 56    
Maximum Humidity 80    
Minimum Humidity 31    
Precipitation  
Precipitation T in 0.13 in 1.38 in (1971)
Month to date precipitation T 0.81  
Year to date precipitation 11.47 13.60  
Snow  
Snow 0.00 in 0.00 in - ()
Month to date snowfall 0.0 0.0  
Since 1 July snowfall 39.4 48.3  
Snow Depth 0.00 in    
Sea Level Pressure  
Sea Level Pressure 30.00 in    
Wind  
Wind Speed 7 mph (ESE)    
Max Wind Speed 16 mph    
Max Gust Speed 22 mph    
Visibility 10 miles    
Events      
T = Trace of Precipitation, MM = Missing Value Source: NWS Daily Summary

Daily Weather History Graph

Daily Weather History Graph

Search for Another Location

Airport:

Trip Planner

Search our weather history database for the weather conditions in past years. The results will help you decide how hot, cold, wet, or windy it might be!

Date:

Astronomy

May. 06, 2013 Rise Set
Actual Time 6:22 AM EDT 8:31 PM EDT
Civil Twilight 5:51 AM EDT 9:02 PM EDT
Nautical Twilight 5:14 AM EDT 9:39 PM EDT
Astronomical Twilight 4:34 AM EDT 10:20 PM EDT
Moon 4:24 AM EDT (5/6) 5:29 PM EDT (5/6)
Length of Visible Light 15h 10m
Length of Day
14h 09m
Waning Crescent, 11% of the Moon is Illuminated
May 6
Waning Crescent
May 9
New
May 18
First Quarter
May 25
Full
May 31
Last Quarter

Hourly Weather History & Observations

Time (EDT) Temp. Dew Point Humidity Pressure Visibility Wind Dir Wind Speed Gust Speed Precip Events Conditions
12:52 AM 59.0 °F 28.9 °F 32% 29.99 in 10.0 mi East 9.2 mph - N/A   Clear
1:52 AM 59.0 °F 28.9 °F 32% 29.99 in 10.0 mi ESE 12.7 mph - N/A   Clear
2:52 AM 57.9 °F 30.9 °F 36% 29.98 in 10.0 mi ESE 12.7 mph - N/A   Clear
3:52 AM 55.9 °F 34.0 °F 44% 29.98 in 10.0 mi ESE 11.5 mph - N/A   Mostly Cloudy
4:52 AM 53.1 °F 36.0 °F 52% 29.98 in 10.0 mi ESE 6.9 mph - N/A   Partly Cloudy
5:52 AM 53.1 °F 37.0 °F 55% 29.99 in 10.0 mi ESE 10.4 mph - N/A   Partly Cloudy
6:52 AM 53.1 °F 37.9 °F 57% 30.01 in 10.0 mi ESE 8.1 mph - N/A   Clear
7:52 AM 55.0 °F 39.9 °F 57% 30.02 in 10.0 mi ESE 11.5 mph - N/A   Partly Cloudy
8:52 AM 59.0 °F 42.1 °F 53% 30.03 in 10.0 mi ESE 10.4 mph - N/A   Overcast
9:52 AM 57.9 °F 43.0 °F 58% 30.04 in 10.0 mi East 8.1 mph - N/A   Overcast
10:52 AM 60.1 °F 45.0 °F 57% 30.04 in 10.0 mi East 9.2 mph - N/A   Mostly Cloudy
11:52 AM 64.9 °F 46.9 °F 52% 30.03 in 10.0 mi East 4.6 mph - N/A   Clear
12:52 PM 66.9 °F 48.0 °F 51% 30.02 in 10.0 mi East 6.9 mph - N/A   Partly Cloudy
1:52 PM 70.0 °F 48.9 °F 47% 30.00 in 10.0 mi East 9.2 mph - N/A   Clear
2:52 PM 71.1 °F 48.0 °F 44% 29.99 in 10.0 mi East 11.5 mph 18.4 mph N/A   Partly Cloudy
3:52 PM 73.0 °F 48.9 °F 42% 29.96 in 10.0 mi Variable 5.8 mph - N/A   Scattered Clouds
4:52 PM 70.0 °F 48.0 °F 46% 29.96 in 10.0 mi ESE 9.2 mph - N/A   Overcast
5:52 PM 68.0 °F 48.9 °F 50% 29.97 in 10.0 mi ESE 8.1 mph - N/A   Overcast
6:52 PM 64.9 °F 54.0 °F 68% 29.98 in 10.0 mi South 9.2 mph - 0.00 in   Overcast
7:52 PM 64.0 °F 53.1 °F 67% 29.99 in 10.0 mi South 3.5 mph - N/A   Overcast
8:52 PM 62.1 °F 54.0 °F 75% 29.99 in 10.0 mi Calm Calm - N/A   Overcast
9:52 PM 61.0 °F 52.0 °F 72% 30.00 in 10.0 mi East 4.6 mph - N/A   Scattered Clouds
10:52 PM 60.1 °F 52.0 °F 75% 30.01 in 10.0 mi Calm Calm - N/A   Partly Cloudy
11:52 PM 57.0 °F 52.0 °F 83% 30.01 in 10.0 mi Calm Calm - N/A   Clear